When you browse on this site, cookies collect data to enhance your experience and personalize the content and advertising you see.
Visit our Privacy Policy to learn more. By continuing to use the site, you agree to this use of cookies and data.
  • In Latvia
  • List of Countries
  • For 7 days
  • Water Temperature
  • Satellite Maps
  • Weather Map
  • Weather Widgets
  • user-avatar
    Login

    Hourly Weather Riga

    Today, 23 May, Thursday

    Time Temperature Precipitation Wind Pressure Humidity
    00:00 +16°C° 0 mm 0 mps 755 mmHg 85%
    01:00 +15°C° 0 mm 0 mps 755 mmHg 86%
    02:00 +16°C° 0 mm 1 mps 755 mmHg 86%
    03:00 +16°C° 0 mm 1 mps 755 mmHg 86%
    04:00 +16°C° 0 mm 1 mps 755 mmHg 85%
    05:00 +16°C° 0 mm 1 mps 755 mmHg 85%
    06:00 +18°C° 0 mm 1 mps 755 mmHg 79%
    07:00 +20°C° 0 mm 1 mps 755 mmHg 72%
    08:00 +20°C° 0 mm 2 mps 754 mmHg 66%
    09:00 +21°C° 0 mm 2 mps 754 mmHg 61%
    10:00 +23°C° 0 mm 2 mps 754 mmHg 56%
    11:00 +24°C° 0 mm 3 mps 754 mmHg 51%
    12:00 +25°C° 0 mm 3 mps 754 mmHg 49%
    13:00 +25°C° 0 mm 3 mps 754 mmHg 47%
    14:00 +25°C° 0 mm 3 mps 754 mmHg 45%
    15:00 +25°C° 0 mm 3 mps 754 mmHg 46%
    16:00 +24°C° 0 mm 3 mps 754 mmHg 47%
    17:00 +22°C° 0 mm 3 mps 754 mmHg 48%
    18:00 +20°C° 0 mm 3 mps 754 mmHg 53%
    19:00 +18°C° 0 mm 3 mps 755 mmHg 59%
    20:00 +17°C° 0 mm 3 mps 755 mmHg 64%
    21:00 +15°C° 0 mm 2 mps 755 mmHg 69%
    22:00 +14°C° 0 mm 2 mps 755 mmHg 75%
    23:00 +13°C° 0 mm 2 mps 755 mmHg 80%

    Tomorrow, 24 May, Friday

    Time Temperature Precipitation Wind Pressure Humidity
    00:00 +13°C° 0 mm 2 mps 756 mmHg 84%
    01:00 +12°C° 0 mm 2 mps 756 mmHg 88%
    02:00 +12°C° 0 mm 2 mps 756 mmHg 92%
    03:00 +12°C° 0.1 mm 2 mps 756 mmHg 93%
    04:00 +12°C° 0.1 mm 2 mps 756 mmHg 93%
    05:00 +12°C° 0.1 mm 2 mps 756 mmHg 94%
    06:00 +12°C° 0.1 mm 2 mps 756 mmHg 91%
    07:00 +13°C° 0.1 mm 2 mps 756 mmHg 87%
    08:00 +14°C° 0.1 mm 2 mps 756 mmHg 84%
    09:00 +16°C° 0.1 mm 3 mps 756 mmHg 76%
    10:00 +17°C° 0.1 mm 3 mps 757 mmHg 68%
    11:00 +19°C° 0.1 mm 3 mps 757 mmHg 60%
    12:00 +19°C° 0 mm 3 mps 757 mmHg 53%
    13:00 +20°C° 0 mm 3 mps 757 mmHg 45%
    14:00 +21°C° 0 mm 3 mps 756 mmHg 37%
    15:00 +20°C° 0 mm 3 mps 756 mmHg 39%
    16:00 +20°C° 0 mm 3 mps 756 mmHg 40%
    17:00 +20°C° 0 mm 2 mps 756 mmHg 42%
    18:00 +18°C° 0 mm 2 mps 756 mmHg 48%
    19:00 +17°C° 0 mm 2 mps 756 mmHg 55%
    20:00 +15°C° 0 mm 1 mps 756 mmHg 61%
    21:00 +14°C° 0 mm 1 mps 756 mmHg 63%
    22:00 +13°C° 0 mm 1 mps 756 mmHg 65%
    23:00 +10°C° 0 mm 0 mps 756 mmHg 67%

    Day after tomorrow, 25 May, Saturday

    Time Temperature Precipitation Wind Pressure Humidity
    00:00 +11°C° 0 mm 1 mps 756 mmHg 69%
    01:00 +11°C° 0 mm 1 mps 756 mmHg 70%
    02:00 +11°C° 0 mm 1 mps 756 mmHg 72%
    03:00 +10°C° 0 mm 2 mps 755 mmHg 74%
    04:00 +10°C° 0 mm 2 mps 755 mmHg 75%
    05:00 +12°C° 0 mm 2 mps 755 mmHg 77%
    06:00 +12°C° 0 mm 3 mps 754 mmHg 72%
    07:00 +14°C° 0 mm 3 mps 754 mmHg 67%
    08:00 +15°C° 0 mm 4 mps 754 mmHg 62%
    09:00 +14°C° 1.3 mm 4 mps 753 mmHg 72%
    10:00 +13°C° 1.3 mm 4 mps 753 mmHg 82%
    11:00 +12°C° 1.3 mm 4 mps 753 mmHg 92%
    12:00 +13°C° 0.1 mm 4 mps 753 mmHg 84%
    13:00 +14°C° 0.1 mm 5 mps 753 mmHg 75%
    14:00 +15°C° 0.1 mm 5 mps 753 mmHg 67%
    15:00 +15°C° 0.1 mm 5 mps 753 mmHg 64%
    16:00 +15°C° 0.1 mm 5 mps 752 mmHg 61%
    17:00 +15°C° 0.1 mm 5 mps 752 mmHg 57%
    18:00 +14°C° 0 mm 5 mps 752 mmHg 62%
    19:00 +13°C° 0 mm 4 mps 752 mmHg 67%
    20:00 +12°C° 0 mm 4 mps 752 mmHg 72%
    21:00 +11°C° 0 mm 4 mps 752 mmHg 76%
    22:00 +10°C° 0 mm 4 mps 752 mmHg 80%
    23:00 +10°C° 0 mm 4 mps 752 mmHg 84%

    26 May, Sunday

    Time Temperature Precipitation Wind Pressure Humidity
    00:00 +8°C° 0 mm 4 mps 752 mmHg 88%
    01:00 +8°C° 0 mm 4 mps 751 mmHg 92%
    02:00 +8°C° 0 mm 3 mps 751 mmHg 96%
    03:00 +9°C° 0 mm 3 mps 751 mmHg 94%
    04:00 +9°C° 0 mm 3 mps 751 mmHg 92%
    05:00 +10°C° 0 mm 3 mps 751 mmHg 90%
    06:00 +11°C° 0 mm 4 mps 751 mmHg 85%
    07:00 +12°C° 0 mm 4 mps 750 mmHg 81%
    08:00 +13°C° 0 mm 4 mps 750 mmHg 76%
    09:00 +12°C° 0.1 mm 5 mps 750 mmHg 77%
    10:00 +12°C° 0.1 mm 5 mps 750 mmHg 78%
    11:00 +12°C° 0.1 mm 5 mps 750 mmHg 78%
    12:00 +11°C° 0.4 mm 6 mps 750 mmHg 80%
    13:00 +10°C° 0.4 mm 6 mps 750 mmHg 82%
    14:00 +10°C° 0.4 mm 6 mps 750 mmHg 83%
    15:00 +10°C° 0.3 mm 6 mps 750 mmHg 82%
    16:00 +10°C° 0.3 mm 6 mps 750 mmHg 81%
    17:00 +10°C° 0.3 mm 6 mps 750 mmHg 80%
    18:00 +9°C° 0.1 mm 6 mps 750 mmHg 79%
    19:00 +9°C° 0.1 mm 5 mps 749 mmHg 78%
    20:00 +8°C° 0.1 mm 5 mps 749 mmHg 77%
    21:00 +8°C° 0.1 mm 5 mps 749 mmHg 78%
    22:00 +8°C° 0.1 mm 6 mps 749 mmHg 80%
    23:00 +7°C° 0.1 mm 6 mps 749 mmHg 81%

    27 May, Monday

    Time Temperature Precipitation Wind Pressure Humidity
    00:00 +7°C° 0 mm 6 mps 749 mmHg 82%
    01:00 +7°C° 0 mm 5 mps 749 mmHg 82%
    02:00 +7°C° 0 mm 5 mps 750 mmHg 82%
    03:00 +7°C° 0 mm 5 mps 750 mmHg 82%
    04:00 +7°C° 0 mm 4 mps 750 mmHg 81%
    05:00 +7°C° 0 mm 4 mps 751 mmHg 80%
    06:00 +8°C° 0 mm 5 mps 751 mmHg 73%
    07:00 +10°C° 0 mm 5 mps 751 mmHg 66%
    08:00 +12°C° 0 mm 5 mps 752 mmHg 59%
    09:00 +13°C° 0 mm 5 mps 752 mmHg 57%
    10:00 +14°C° 0 mm 4 mps 753 mmHg 56%
    11:00 +15°C° 0 mm 4 mps 753 mmHg 54%
    12:00 +15°C° 0 mm 4 mps 754 mmHg 55%
    13:00 +16°C° 0 mm 3 mps 754 mmHg 55%
    14:00 +17°C° 0 mm 3 mps 754 mmHg 55%
    15:00 +17°C° 0 mm 2 mps 754 mmHg 54%
    16:00 +18°C° 0 mm 2 mps 755 mmHg 53%
    17:00 +18°C° 0 mm 2 mps 755 mmHg 51%
    18:00 +18°C° 0 mm 1 mps 755 mmHg 57%
    19:00 +16°C° 0 mm 1 mps 755 mmHg 63%
    20:00 +15°C° 0 mm 1 mps 755 mmHg 69%
    21:00 +14°C° 0 mm 2 mps 755 mmHg 75%
    22:00 +13°C° 0 mm 2 mps 755 mmHg 81%
    23:00 +12°C° 0 mm 2 mps 755 mmHg 86%

    28 May, Tuesday

    Time Temperature Precipitation Wind Pressure Humidity
    00:00 +11°C° 0.1 mm 3 mps 755 mmHg 89%
    01:00 +11°C° 0.1 mm 3 mps 755 mmHg 91%
    02:00 +12°C° 0.1 mm 4 mps 754 mmHg 94%
    03:00 +12°C° 0 mm 4 mps 754 mmHg 94%
    04:00 +12°C° 0 mm 4 mps 754 mmHg 93%
    05:00 +13°C° 0 mm 4 mps 754 mmHg 93%
    06:00 +14°C° 0 mm 4 mps 753 mmHg 87%
    07:00 +17°C° 0 mm 4 mps 753 mmHg 81%
    08:00 +18°C° 0 mm 4 mps 753 mmHg 75%
    09:00 +19°C° 0 mm 5 mps 753 mmHg 73%
    10:00 +20°C° 0 mm 5 mps 752 mmHg 72%
    11:00 +20°C° 0 mm 5 mps 752 mmHg 70%
    12:00 +19°C° 0.9 mm 5 mps 751 mmHg 78%
    13:00 +18°C° 0.9 mm 4 mps 751 mmHg 86%
    14:00 +17°C° 0.9 mm 4 mps 750 mmHg 93%
    15:00 +18°C° 0.1 mm 4 mps 750 mmHg 91%
    16:00 +19°C° 0.1 mm 4 mps 749 mmHg 88%
    17:00 +20°C° 0.1 mm 4 mps 749 mmHg 86%
    18:00 +20°C° 0.3 mm 3 mps 748 mmHg 88%
    19:00 +19°C° 0.3 mm 3 mps 748 mmHg 90%
    20:00 +19°C° 0.3 mm 2 mps 748 mmHg 92%
    21:00 +18°C° 0.2 mm 3 mps 748 mmHg 93%
    22:00 +18°C° 0.2 mm 4 mps 748 mmHg 94%
    23:00 +16°C° 0.2 mm 5 mps 749 mmHg 95%
    Show more